Fort Wayne, IN

9:55 PM EST on February 13, 2016 (GMT -0500)
Fort Wayne International

Weather History for KFWA - August, 2013

Change the Weather History Date:

Tuesday, August 13, 2013

  Actual Average Record
Temperature  
Mean Temperature 63 °F 72 °F  
Max Temperature 72 °F 82 °F 98 °F (1936)
Min Temperature 54 °F 61 °F 46 °F (1967)
Degree Days  
Heating Degree Days 2 0  
Month to date heating degree days 2 0  
Since 1 June heating degree days 31 32  
Since 1 July heating degree days 12 3  
Cooling Degree Days 0 7  
Month to date cooling degree days 71 96  
Year to date cooling degree days 604 602  
Since 1 June cooling degree days 499 545  
Growing Degree Days 14 (Base 50)    
Moisture  
Dew Point 56 °F    
Average Humidity 73    
Maximum Humidity 94    
Minimum Humidity 43    
Precipitation  
Precipitation 0.00 in 0.13 in 1.85 in (1908)
Month to date precipitation 4.26 1.58  
Year to date precipitation 31.52 24.78  
Snow  
Snow 0.00 in 0.00 in - ()
Month to date snowfall 0.0 0.0  
Since 1 June snowfall 0.0 0.0  
Since 1 July snowfall 0.0 0.0  
Snow Depth 0.00 in    
Sea Level Pressure  
Sea Level Pressure 29.98 in    
Wind  
Wind Speed 9 mph (NNW)    
Max Wind Speed 18 mph    
Max Gust Speed 25 mph    
Visibility 8 miles    
Events      
T = Trace of Precipitation, MM = Missing Value Source: NWS Daily Summary

Daily Weather History Graph

Daily Weather History Graph

Search for Another Location

Airport or City:

Trip Planner

Search our weather history database for the weather conditions in past years. The results will help you decide how hot, cold, wet, or windy it might be!

Date:

Astronomy

Aug. 13, 2013 Rise Set
Actual Time 6:48 AM EDT 8:41 PM EDT
Civil Twilight 6:19 AM EDT 9:11 PM EDT
Nautical Twilight 5:42 AM EDT 9:47 PM EDT
Astronomical Twilight 5:03 AM EDT 10:26 PM EDT
Moon 1:46 PM EDT (8/13) No Moon Set
Length of Visible Light 14h 52m
Length of Day
13h 52m
Waxing Crescent, 41% of the Moon is Illuminated
Aug 13
Waxing Crescent
Aug 14
First Quarter
Aug 20
Full
Aug 28
Last Quarter
Sep 5
New

Hourly Weather History & Observations

Time (EDT) Temp. Dew Point Humidity Pressure Visibility Wind Dir Wind Speed Gust Speed Precip Events Conditions
1:54 AM 68.0 °F 64.9 °F 90% 29.88 in 10.0 mi NW 5.8 mph - N/A   Scattered Clouds
2:25 AM 66.2 °F 64.4 °F 94% 29.89 in 5.0 mi NW 4.6 mph - N/A   Scattered Clouds
2:47 AM 66.2 °F 64.4 °F 94% 29.89 in 4.0 mi NW 10.4 mph - N/A   Mostly Cloudy
2:54 AM 66.9 °F 64.9 °F 93% 29.88 in 4.0 mi NNW 11.5 mph - N/A   Overcast
3:23 AM 66.2 °F 62.6 °F 88% 29.89 in 6.0 mi NNW 6.9 mph - N/A   Mostly Cloudy
3:54 AM 64.9 °F 63.0 °F 93% 29.88 in 5.0 mi NNW 6.9 mph - N/A   Scattered Clouds
4:54 AM 64.9 °F 62.1 °F 90% 29.89 in 4.0 mi Calm Calm - N/A   Scattered Clouds
5:54 AM 63.0 °F 61.0 °F 93% 29.90 in 3.0 mi NNW 3.5 mph - N/A   Scattered Clouds
6:07 AM 62.6 °F 60.8 °F 94% 29.92 in 3.0 mi NNW 4.6 mph - N/A   Mostly Cloudy
6:54 AM 63.0 °F 61.0 °F 93% 29.92 in 4.0 mi North 8.1 mph - N/A   Mostly Cloudy
7:54 AM 63.0 °F 59.0 °F 87% 29.94 in 10.0 mi North 8.1 mph - N/A   Scattered Clouds
8:54 AM 64.0 °F 59.0 °F 84% 29.97 in 10.0 mi North 12.7 mph - N/A   Scattered Clouds
9:54 AM 66.0 °F 57.0 °F 73% 29.99 in 10.0 mi North 16.1 mph - N/A   Scattered Clouds
10:54 AM 66.9 °F 57.0 °F 70% 30.00 in 10.0 mi NNW 11.5 mph - N/A   Scattered Clouds
11:54 AM 68.0 °F 52.0 °F 56% 30.01 in 10.0 mi NW 11.5 mph - N/A   Scattered Clouds
12:54 PM 69.1 °F 53.1 °F 57% 30.01 in 10.0 mi NNW 12.7 mph 19.6 mph N/A   Scattered Clouds
1:54 PM 70.0 °F 50.0 °F 49% 30.02 in 10.0 mi North 12.7 mph - N/A   Scattered Clouds
2:54 PM 70.0 °F 50.0 °F 49% 30.03 in 10.0 mi NW 9.2 mph 18.4 mph N/A   Scattered Clouds
3:54 PM 70.0 °F 46.9 °F 44% 30.02 in 10.0 mi NNW 12.7 mph 19.6 mph N/A   Scattered Clouds
4:54 PM 71.1 °F 48.9 °F 45% 30.03 in 10.0 mi NNW 13.8 mph 21.9 mph N/A   Scattered Clouds
5:54 PM 66.9 °F 46.9 °F 49% 30.03 in 8.0 mi North 13.8 mph 21.9 mph N/A   Scattered Clouds
6:54 PM 66.9 °F 48.0 °F 51% 30.04 in 10.0 mi North 12.7 mph - N/A   Scattered Clouds
7:54 PM 64.9 °F 48.0 °F 54% 30.05 in 10.0 mi North 6.9 mph - N/A   Scattered Clouds
8:54 PM 61.0 °F 48.0 °F 62% 30.06 in 10.0 mi NNW 8.1 mph - N/A   Partly Cloudy
9:54 PM 60.1 °F 50.0 °F 69% 30.07 in 10.0 mi NW 8.1 mph - N/A   Clear
10:54 PM 57.9 °F 48.9 °F 72% 30.09 in 10.0 mi NW 5.8 mph - N/A   Clear
11:54 PM 55.9 °F 48.9 °F 77% 30.10 in 10.0 mi NW 5.8 mph - N/A   Clear